Вернуться в каталог

STARLINK-30101

АктивенСвязьVLEO
NORAD 56301·PAYLOAD·🇺🇸 United States

Запущен Apr 19, 2023 с Cape Canaveral Space Force Station

Loading…

Ближайшие Пролёты (ближайшие 24 часа)

TLE

СвежийSource: CelesTrak SupGP

Эпоха: Sep 15, 2026, 02:14 UTC

1 56301C 23056R   26258.09354167 -.00054134  00000+0 -21683-2 0  2587
2 56301  43.0000 217.3578 0001069 256.5282 293.9745 15.24274712    18

Отслеживайте STARLINK-30101 в реальном времени с AllMySat

Download on the App Store